Regional Weather Roundup
Issued by NWS Jackson, KY

Home | Current Version | Previous Version | Graphics & Text | Print | Product List | Glossary On
Versions: 1 2 3 4 5 6 7 8 9 10 11 12 13 14 15 16 17 18 19 20 21 22 23 24 25 26 27 28 29 30 31 32 33 34 35 36 37 38 39 40 41 42 43 44 45 46 47 48 49 50
000
ASUS43 KJKL 271311
RWRJKL

EAST KENTUCKY HOURLY WEATHER ROUNDUP
NATIONAL WEATHER SERVICE JACKSON KY
800 AM EST SAT DEC 27 2014

NOTE: "FAIR" INDICATES FEW OR NO CLOUDS BELOW 12,000 FEET WITH
NO SIGNIFICANT WEATHER AND/OR OBSTRUCTIONS TO VISIBILITY.

* THESE REPORTS ARE NOT UNDER NWS QUALITY CONTROL AND MAY NOT
  REPORT WEATHER SUCH AS PRECIPITATION AND FOG.

KYZ079-080-083-085-087-088-110-112-115-119-120-271400
...EASTERN KENTUCKY...

CITY           SKY/WX    TMP DP  RH WIND       PRES   REMARKS
JACKSON        MOCLDY    45  25  45 S3        30.24R
LONDON         PTCLDY    42  30  62 CALM      30.25R
SOMERSET*      CLOUDY    43  34  70 CALM      30.26S
MONTICELLO*    PTCLDY    49  35  58 S6        30.27R
MIDDLESBORO*   CLOUDY    40  37  89 CALM      30.29R
HARLAN APT*    SUNNY     45  28  53 NE5       30.28R
HAZARD APT*    CLOUDY    41  34  75 CALM      30.25
BLACK MTN*       N/A     46  12  25 SW13        N/A
PIKEVILLE APT* CLEAR     45  27  49 SE5       30.25R
BIG SANDY*     PTSUNNY   42  30  62 CALM      30.25R
MOREHEAD APT*  CLOUDY    45  32  61 SE3       30.27R
$$

KYZ035-036-041-042-044-050-067-078-099-271400
...CENTRAL KENTUCKY...

CITY           SKY/WX    TMP DP  RH WIND       PRES   REMARKS
MT STERLING*   CLOUDY    45  34  65 CALM      30.25S
FLEMING/MASON* CLOUDY    43  32  65 S5        30.25S
DANVILLE*      CLOUDY    45  32  61 SW3       30.25R
RICHMOND*      CLOUDY    48  32  53 SW6       30.24R
LEXINGTON      LGT RAIN  45  36  70 SE6       30.23R
FRANKFORT      CLOUDY    46  36  68 S3        30.22R
$$

KYZ091>093-OHZ055-061-077-WVZ005-015-034-035-042-271400
...SOUTHERN OHIO/WEST VIRGINIA...

CITY           SKY/WX    TMP DP  RH WIND       PRES   REMARKS
COVINGTON      LGT RAIN  43  35  73 S6        30.21R
COLUMBUS       CLOUDY    41  31  67 CALM      30.20R
DAYTON         CLOUDY    45  35  68 SW10      30.18S
WILMINGTON     MOCLDY    41  33  73 S8        30.19S
HUNTINGTON     CLOUDY    43  32  65 CALM      30.25R
CHARLESTON     MOCLDY    39  34  82 CALM      30.26R
PINEVILLE*     PTCLDY    36  35  97 MISG      30.32R
BECKLEY        CLEAR     37  21  52 CALM      30.26R
BLUEFIELD      PTCLDY    46  12  25 SW3       30.26S
$$

VAZ002-007-008-TNZ017-027-036-066-071-271400
...SOUTHWEST VIRGINIA/EAST TENNESSEE...

CITY           SKY/WX    TMP DP  RH WIND       PRES   REMARKS
WISE*          PTCLDY    41  19  42 SW7       30.28R
ABINGDON*      CLEAR     37  30  75 CALM      30.28S
BRISTOL        PTCLDY    33  30  88 CALM      30.30R
KNOXVILLE      MOCLDY    36  34  92 CALM      30.29R
OAK RIDGE      PTCLDY    37  35  92 CALM      30.31R
CROSSVILLE     CLOUDY    49  31  49 VRB6      30.26R
NASHVILLE      CLOUDY    50  40  68 SE5       30.23R
$$

...KEY TO REMARKS...
VSB - VISIBILITY IN MILES
WCI - WIND CHILL INDEX
HX  - HEAT INDEX

$$


USA.gov is the U.S. government's official web portal to all federal, state and local government web resources and services.